Location: Wyoming Skies Observatory
(43.6910°N, 108.3105°W)
Time: 01:16:32
(UTC-07:00)

Daily predictions for brighter satellites

Satellite Brightness Start Highest point End
(mag) Time Altitude Azimuth Time Altitude Azimuth Time Altitude Azimuth
Cosmos 1980 Rocket 4.4 03:56:42 19° SE 03:56:42 19° SE 03:58:16 10° SE
USA 267 3.3 04:24:11 10° NE 04:30:07 75° ENE 04:30:07 75° ENE
SL-16 R/B 3.4 04:33:33 34° NNE 04:34:32 37° NE 04:39:44 10° ESE
Cosmos 2322 Rocket 3.3 04:38:06 35° NNE 04:39:17 39° ENE 04:44:35 10° SE
CZ-4C R/B 2.5 04:47:02 61° SE 04:47:07 61° ESE 04:52:56 10° NE
Meteor 2-20 4.5 04:41:49 10° S 04:47:53 74° E 04:53:57 10° NNE
Meteor 1-11 Rocket 3.8 04:49:44 74° NE 04:49:44 74° NE 04:55:07 10° NNE
SeaSat 1 2.7 04:49:08 10° NNE 04:53:49 65° E 04:53:49 65° E
Cosmos 2082 Rocket 4.1 05:06:59 17° N 05:06:59 17° N 05:08:28 10° N
Meteor 1-5 Rocket 4.2 05:00:12 10° S 05:05:36 72° E 05:10:55 10° NNE
USA 234 3.3 04:59:35 10° ESE 05:06:06 71° NE 05:08:08 46° NNW
BREEZE-M DEB (TANK) 4.0 05:05:49 46° NW 05:07:32 55° N 05:11:17 10° ENE
SKYMED 2 4.1 05:05:36 10° SSE 05:09:51 57° ENE 05:10:28 51° NE
NOAA 6 4.3 05:12:24 10° NNE 05:17:32 66° ESE 05:22:38 10° S
Cosmos 192 4.4 05:17:17 10° SSW 05:22:10 77° ESE 05:27:06 10° NNE
IRS-P2 Rocket 4.5 05:20:44 10° N 05:25:56 66° WNW 05:31:12 10° SSW
Nadezhda 4 Rocket 3.8 05:20:19 10° SSW 05:26:26 73° W 05:32:33 10° N
CZ-4B R/B 4.4 05:22:41 10° N 05:25:21 26° NNW 05:25:21 26° NNW
Cosmos 773 Rocket 3.8 05:24:07 16° SSW 05:28:19 80° WNW 05:33:32 10° NNE
Cosmos 2360 Rocket 3.2 05:30:28 15° N 05:35:00 45° ENE 05:40:25 10° SE
Cosmos 1980 Rocket 3.6 05:38:33 22° SW 05:38:33 22° SW 05:41:10 10° SSW
Cosmos 1025 Rocket 2.9 05:36:04 29° N 05:38:11 84° E 05:42:29 10° S
Meteor 2-20 Rocket 4.4 05:34:09 10° SSW 05:40:08 57° WNW 05:46:08 10° N
Okean 1-7 Rocket 3.9 05:36:37 13° N 05:40:43 67° E 05:45:14 10° SSE
Meteor 1-23 Rocket 4.2 05:38:51 32° NNW 05:41:15 56° W 05:46:38 10° S
Cosmos 1680 Rocket 4.1 05:37:00 10° S 05:42:05 56° ESE 05:47:12 10° NNE
Cosmos 1515 3.5 05:42:40 68° W 05:42:44 68° W 05:46:32 10° S
Cosmos 2219 Rocket 4.5 05:39:19 10° N 05:43:11 18° NE 05:47:02 10° E
IDEFIX/ARIANE 42P 2.5 05:43:06 10° NNE 05:48:21 87° WNW 05:53:35 10° SSW
COSMO-SKYMED 1 2.9 05:53:49 10° S 05:57:56 42° W 05:59:04 35° WNW
Cosmos 1975 3.1 05:55:25 10° S 05:59:21 70° E 06:03:21 10° NNE
Okean 2 3.4 05:58:51 30° NNW 06:00:32 52° W 06:04:32 10° S
SJ-12 4.2 05:59:08 10° NNE 06:03:13 70° ESE 06:07:15 10° S
ATLAS 5 CENTAUR R/B 4.0 06:00:55 10° NNW 06:05:39 25° NE 06:10:45 10° E
Cosmos 1092 Rocket 4.1 06:02:53 10° SSW 06:08:47 49° WNW 06:14:45 10° N
Thor Agena Rocket 3.6 06:04:29 10° SSE 06:09:31 76° ENE 06:14:37 10° NNW
Okean-O 3.0 06:06:38 10° N 06:10:46 39° WNW 06:14:53 10° SW
USA 267 3.8 06:07:25 10° NE 06:13:23 40° NNW 06:17:29 19° W
Okean 1 Rocket 3.6 06:09:40 10° SW 06:13:40 35° WNW 06:17:46 10° N
Cosmos 923 Rocket 4.0 06:09:03 10° SSW 06:14:13 59° WNW 06:19:24 10° NNE
Meteor 1-4 Rocket 3.3 06:13:14 10° SW 06:16:38 31° WNW 06:20:04 10° N
SL-16 R/B 2.8 06:15:28 20° NW 06:18:35 35° WSW 06:23:40 10° S
APEX 3.2 06:17:51 10° SW 06:21:15 59° WNW 06:25:36 10° NNE
Cosmos 2026 Rocket 4.0 06:15:09 10° SSW 06:21:22 65° W 06:27:43 10° N
Cosmos 2322 Rocket 2.9 06:19:58 19° NW 06:23:14 33° WSW 06:28:16 10° SSW
Cosmos 1184 Rocket 3.5 06:22:48 24° NW 06:24:03 33° W 06:27:05 10° SSW
CSL-04 Rocket 4.2 06:20:35 10° NNE 06:26:08 64° ESE 06:31:36 10° S
Cosmos 1743 2.6 06:22:45 10° S 06:26:34 88° W 06:30:25 10° N
ATLAS CENTAUR R/B 2.3 06:23:28 10° SSW 06:27:00 44° ESE 06:30:32 10° NE
Cosmos 1655 Rocket 4.0 06:21:04 10° S 06:27:19 80° W 06:33:39 10° N
Cosmos 1553 Rocket 3.9 06:23:56 10° N 06:30:13 82° W 06:36:20 10° S
Cosmos 2112 Rocket 3.9 06:25:21 10° SSW 06:30:29 64° WNW 06:35:41 10° NNE
Cosmos 1842 4.5 06:26:51 10° N 06:30:41 44° ENE 06:34:29 10° SSE
Cosmos 1484 Rocket 2.8 06:27:15 10° NNE 06:31:09 83° ESE 06:34:58 10° S
SeaSat 1 3.7 06:27:30 10° N 06:31:10 21° NW 06:33:38 15° W
Cosmos 1892 Rocket 3.5 06:28:01 10° NNW 06:32:22 65° W 06:36:40 10° S
Aureole 1 Rocket 4.4 06:29:43 10° SSE 06:32:28 31° ESE 06:35:39 10° NE
YAOGAN 1 4.4 06:28:45 10° NNE 06:32:45 35° E 06:36:41 10° SSE
MSX 3.8 06:27:16 10° N 06:32:55 60° WNW 06:38:32 10° SSW
Meteor 1-12 Rocket 4.2 06:27:53 10° SSW 06:33:35 76° WNW 06:39:15 10° N
CZ-4C R/B 3.1 06:32:18 14° W 06:36:06 29° NW 06:41:27 10° NNE
Cosmos 2056 Rocket 3.6 06:31:10 10° NNW 06:36:18 80° ENE 06:41:27 10° SSE
Cosmos 2237 4.2 06:31:40 10° NNW 06:37:25 89° WSW 06:43:06 10° SSE
CZ-2C R/B 2.8 06:34:42 10° N 06:39:10 38° WNW 06:43:28 10° SW
Lacrosse 5 3.9 06:39:19 10° S 06:43:46 31° SE 06:48:14 10° ENE
AQUARIUS 4.2 06:39:28 10° NNE 06:43:59 88° E 06:48:29 10° SSW
Cosmos 2322 3.8 06:43:33 10° NNW 06:49:10 63° WSW 06:54:44 10° S
USA 234 4.0 06:43:25 10° SSE 06:49:23 37° SW 06:55:22 10° WNW
Cosmos 1340 Rocket 2.7 06:49:43 10° NNW 06:53:40 74° W 06:57:38 10° S
Cosmos 1833 4.3 06:50:30 10° SW 06:55:54 50° WNW 07:01:22 10° NNE
Ariane Rocket 3.0 06:51:36 10° NNE 06:56:41 79° WNW 07:01:44 10° SSW
SL-16 R/B 4.5 06:53:54 10° N 06:57:28 17° NE 07:01:01 10° E
Cosmos 1271 Rocket 2.9 06:54:00 10° SSW 06:57:39 48° WNW 07:01:18 10° N
Cosmos 1602 Rocket 3.7 06:55:40 10° N 07:00:01 79° E 07:04:20 10° SSE
Cosmos 389 Rocket 3.3 06:59:10 10° SW 07:02:24 30° WNW 07:05:38 10° N
CORIOLIS 4.1 06:57:25 10° NNE 07:02:48 83° WNW 07:08:08 10° SSW
GEOS 3 Rocket 3.7 07:01:53 10° NNE 07:07:18 71° NW 07:12:37 10° SW
Cosmos 1455 Rocket 3.5 07:04:45 10° SSW 07:08:57 40° WNW 07:13:11 10° N
